Content
SEND FEEDBACK

Daily
Averages
Monthly
Summary
Czech Republic

SCHLAPANITZ, CZECH REPUBLIC


Home > Europe > Czech Republic
Elevation: 807 feet     Latitude: 49 01N     Longitude: 016 42E

WEATHER
 
SELECT A DAY
Number of Records: 286,929;   Date Range: 2/20/97 - 9/15/14
 
SHARE

PRINT THIS DATA

[ ← Previous Day ]
WEATHER ALMANAC - JANUARY 31, 2013
[ Next Day → ]
[ °C ]   °F
Weather ElementAverageHighLow
Temperature43.3 °F48.2 °F (12:00 pm)39.2 °F (6:00 pm)
Dewpoint31.4 °F39.2 °F (12:30 am)28 °F (1:00 pm)
Humidity63.1 %93 % (12:30 am)35 % (1:00 pm)
Barometer29.90 in29.98 in (10:16 am)29.80 in (12:30 am)
Wind Speed13.5 mph26.5 mph (1:00 pm)
Wind Gust38 mph (1:00 pm)
Weather ElementAverage
Visibility7.6 mi
Wind DirectionWSW (255.3 °)

Weather ElementTotal
Precipitation---
Heating Degree Days21.3 (Base 65)
Averaged from 53 records on January 31, 2013
WEATHER CONDITIONS BREAKOUT
WIND DIRECTION BREAKOUT
WEATHER BY HOUR - JANUARY 31, 2013
[ °C ]   °F
Local TimeTemperatureDewpointHumidityBarometerVisibilityWind DirectionWind SpeedGust SpeedPrecipitationEventsConditions
12:30 AM41.0 °F39.2 °F93 %29.80 in6.2 miSW (230°)8.1 mphRainLight Rain
1:00 AM40.0 °F38.0 °F88 %29.83 in11.0 miSW (220°)4.5 mphRainLight Rain
1:00 AM41.0 °F37.4 °F87 %29.80 in6.2 miSSW (200°)3.5 mphMostly Cloudy
1:30 AM41.0 °F39.2 °F93 %29.86 in6.2 miWest (270°)8.1 mphMostly Cloudy
2:00 AM44.6 °F37.4 °F76 %29.89 in6.2 miWest (280°)15.0 mph26.5 mphScattered Clouds
2:30 AM41.0 °F35.6 °F81 %29.92 in6.2 miWNW (290°)8.1 mphMostly Cloudy
3:00 AM41.0 °F35.6 °F81 %29.92 in6.2 miSW (230°)8.1 mphMostly Cloudy
3:30 AM41.0 °F35.6 °F81 %29.92 in6.2 miWSW (240°)8.1 mphScattered Clouds
4:00 AM41.0 °F33.8 °F76 %29.92 in6.2 miWest (270°)12.7 mphPartly Cloudy
4:30 AM42.8 °F32.0 °F66 %29.92 in6.2 miWest (280°)15.0 mphPartly Cloudy
5:00 AM41.0 °F32.0 °F70 %29.92 inWest (270°)13.8 mphClear
5:30 AM41.0 °F32.0 °F70 %29.92 inWest (270°)12.7 mphClear
6:00 AM41.0 °F32.0 °F70 %29.92 inWest (270°)16.1 mphClear
6:30 AM42.8 °F30.2 °F61 %29.92 inWest (280°)16.1 mphClear
7:00 AM42.0 °F30.0 °F51 %29.96 in19.0 miWest (280°)13.4 mphMostly Cloudy
7:00 AM42.8 °F30.2 °F61 %29.92 inWest (280°)12.7 mphClear
7:30 AM41.0 °F30.2 °F65 %29.95 inWest (270°)9.2 mphClear
8:00 AM41.0 °F30.2 °F65 %29.95 inWest (270°)8.1 mphClear
8:30 AM42.8 °F30.2 °F61 %29.95 in6.2 miWNW (290°)8.1 mphPartly Cloudy
9:00 AM42.8 °F30.2 °F61 %29.95 in6.2 miWest (280°)12.7 mphPartly Cloudy
9:30 AM44.6 °F30.2 °F57 %29.95 in6.2 miWest (280°)16.1 mphPartly Cloudy
10:00 AM44.6 °F30.2 °F57 %29.95 in6.2 miWest (280°)24.2 mphScattered Clouds
10:16 AM44.6 °F30.2 °F57 %29.98 in6.2 miWest (280°)20.7 mph33.4 mphScattered Clouds
10:30 AM46.4 °F30.2 °F53 %29.98 in6.2 miWest (280°)24.2 mphPartly Cloudy
11:00 AM46.4 °F30.2 °F53 %29.98 in6.2 miWest (280°)25.3 mphScattered Clouds
11:30 AM46.4 °F30.2 °F53 %29.98 in6.2 miWNW (290°)19.6 mphScattered Clouds
11:39 AM46.4 °F30.2 °F53 %29.98 in6.2 miWest (280°)19.6 mph32.2 mphPartly Cloudy
12:00 PM48.2 °F28.4 °F46 %29.95 in6.2 miWest (280°)24.2 mph36.8 mphPartly Cloudy
12:30 PM48.2 °F30.2 °F50 %29.95 in6.2 miWest (280°)23.0 mphPartly Cloudy
12:47 PM48.2 °F28.4 °F46 %29.95 in6.2 miWest (280°)23.0 mph36.8 mphPartly Cloudy
1:00 PM47.0 °F28.0 °F35 %29.97 in31.0 miWest (280°)24.6 mphScattered Clouds
1:00 PM48.2 °F28.4 °F46 %29.95 in6.2 miWest (280°)26.5 mph38.0 mphPartly Cloudy
1:30 PM46.4 °F28.4 °F50 %29.95 inWest (270°)24.2 mphClear
2:00 PM46.4 °F30.2 °F53 %29.95 inWest (270°)20.7 mphClear
2:30 PM46.4 °F30.2 °F53 %29.92 inWest (260°)11.5 mphClear
3:00 PM46.4 °F30.2 °F53 %29.92 inWSW (250°)11.5 mphClear
3:30 PM44.6 °F30.2 °F57 %29.89 inWSW (240°)13.8 mphClear
4:00 PM42.8 °F30.2 °F61 %29.86 inSW (220°)6.9 mphClear
4:30 PM41.0 °F30.2 °F65 %29.89 inSSW (210°)5.8 mphClear
5:00 PM41.0 °F30.2 °F65 %29.86 inSSE (160°)4.6 mphClear
5:30 PM41.0 °F30.2 °F65 %29.86 inSouth (190°)6.9 mphClear
6:00 PM39.2 °F30.2 °F70 %29.83 inSSW (200°)6.9 mphClear
6:30 PM39.2 °F30.2 °F70 %29.83 inSSW (200°)8.1 mphClear
7:00 PM39.2 °F30.2 °F70 %29.83 inSSW (210°)10.4 mphClear
7:30 PM42.8 °F30.2 °F61 %29.83 inSW (230°)10.4 mphClear
8:00 PM42.8 °F28.4 °F57 %29.80 inSW (230°)11.5 mphClear
8:30 PM42.8 °F28.4 °F57 %29.80 inSW (220°)6.9 mphClear
9:00 PM42.8 °F28.4 °F57 %29.80 inWest (260°)6.9 mphClear
9:30 PM42.8 °F30.2 °F61 %29.80 in6.2 miWest (260°)8.1 mphPartly Cloudy
10:00 PM42.8 °F32.0 °F66 %29.80 in6.2 miWSW (250°)12.7 mph26.5 mphMostly Cloudy
10:30 PM44.6 °F32.0 °F61 %29.80 in6.2 miWSW (240°)13.8 mphMostly Cloudy
11:00 PM44.6 °F32.0 °F61 %29.80 in6.2 miWest (260°)17.3 mphRainLight Rain
11:30 PM42.8 °F33.8 °F70 %29.80 in6.2 miWest (260°)13.8 mphMostly Cloudy
Hourly data recorded from LKTB, located miles away from Schlapanitz, Czech Republic







STORIES FROM OUR PARTNERS